Notices

What's New in latest Release from April 7th, 2021:

- Updated Glossary, including Speed of Maximum Gust, and Total Hourly Precipitation

- Updated national and regional climate services offices contacts and prices information

- Addition of station inventory lists for 1981-2010, 1971-2000, and 1961-1990 Normals.

If you haven't already, please take our survey and provide feedback about our website: https://eccc.sondage-survey.ca/f/LanguageSelection.aspx?s=442ca660-fcf1-47c0-95a9-59707d6fd709

Hourly Data Report for September 18, 2015

IQALUIT CLIMATE
NUNAVUT

63°44'50.000" N
68°32'40.000" W
33.50 m
2402592
71321
XFB

Download Data

Hourly Data (September 2015)
Hourly Data Report for September 18, 2015
TIME
LST
Temp Definition
°C
Dew Point Definition
°C
Rel Hum Definition
%
Precip. Amount Definition
mm

Wind Dir Definition
10's deg

Wind Spd Definition
km/h
Visibility Definition
km
Stn Press Definition
kPa
Hmdx Definition


Wind Chill Definition


Weather Definition


00:00 -0.2 -3.5 79 0.0 35 20   101.67   -5 LegendNANA
01:00 -0.9 -3.8 81 0.0 35 23   101.67   -7 LegendNANA
02:00 -0.7 -3.4 82 0.0 33 14   101.69   -5 LegendNANA
03:00 -0.6 -3.5 81 0.0 33 11   101.68   -4 LegendNANA
04:00 -0.6 -3.6 80 0.0 31 11   101.69   -4 LegendNANA
05:00 -1.0 -3.9 81 0.0 35 14   101.68   -5 LegendNANA
06:00 -0.6 -3.9 78 0.0 34 11   101.70   -4 LegendNANA
07:00 -0.3 -3.9 77 0.0 33 9   101.67   -3 LegendNANA
08:00 0.1 -3.4 77 0.0 33 9   101.62     LegendNANA
09:00 0.7 -3.4 74 0.0 33 9   101.55     LegendNANA
10:00 1.6 -3.4 70 0.0 30 8   101.50     LegendNANA
11:00 1.6 -2.9 72 0.0 25 14   101.42     LegendNANA
12:00 2.2 -2.4 72 0.0 25 16   101.37     LegendNANA
13:00 2.6 -2.7 68 0.0 25 14   101.32     LegendNANA
14:00 3.4 -2.8 64 0.0 19 7   101.25     LegendNANA
15:00 3.1 -3.3 63 0.0 20 6   101.17     LegendNANA
16:00 2.1 -3.9 65 0.0 20 4   101.14     LegendNANA
17:00 1.5 -3.4 70 0.0 15 3   101.10     LegendNANA
18:00 0.5 -3.0 77 0.0 13 1   101.05     LegendNANA
19:00 -0.1 -2.6 83 0.0 23 6   100.98   -2 LegendNANA
20:00 -0.6 -2.9 84 0.0 31 2   100.93   -1 LegendNANA
21:00 -1.7 -3.8 86 0.0   0   100.93     LegendNANA
22:00 -2.4 -4.1 88 0.0 1 4   100.86   -4 LegendNANA
23:00 -3.1 -4.5 90 0.0 36 7   100.81   -6 LegendNANA

Notes on Data Quality.

Legend

  • E = Estimated
  • M = Missing
  • NA = Not Available*
  • [empty] = Indicates an unobserved value
Date modified: